This is the latest recevied weather packets stored in our database for station/object WX7FGZ-3. If no packets are shown the sender has not sent any weather packets the latest 10 day(s).
| Time | Temp. | Humidity | Pressure | Rain* | Wind** | Luminosity | Snow |
|---|---|---|---|---|---|---|---|
| 1777447018 | 2.22° C | 37% | 1016.2 hPa | 0 mm | - | - | - |
| 1777446718 | 2.22° C | 37% | 1016.1 hPa | 0 mm | - | - | - |
| 1777446418 | 2.22° C | 37% | 1016.3 hPa | 0 mm | - | - | - |
| 1777446117 | 2.22° C | 39% | 1016.4 hPa | 0 mm | - | - | - |
| 1777445517 | 2.78° C | 37% | 1016.2 hPa | 0 mm | - | - | - |
| 1777444916 | 2.78° C | 38% | 1016.2 hPa | 0 mm | - | - | - |
| 1777443115 | 3.33° C | 36% | 1015.8 hPa | 0 mm | - | - | - |
| 1777442814 | 3.33° C | 37% | 1015.8 hPa | 0 mm | - | - | - |
| 1777442514 | 3.33° C | 35% | 1015.7 hPa | 0 mm | - | - | - |
| 1777442213 | 3.33° C | 36% | 1015.6 hPa | 0 mm | - | - | - |
| 1777441913 | 3.33° C | 39% | 1015.6 hPa | 0 mm | - | - | - |
| 1777441613 | 3.33° C | 40% | 1015.5 hPa | 0 mm | - | - | - |
| 1777441313 | 3.33° C | 37% | 1015.5 hPa | 0 mm | - | - | - |
| 1777440712 | 3.89° C | 35% | 1015.5 hPa | 0 mm | - | - | - |
| 1777440412 | 3.89° C | 35% | 1015.5 hPa | 0 mm | - | - | - |
| 1777439811 | 3.89° C | 32% | 1015.6 hPa | 0 mm | - | - | - |
| 1777439511 | 3.89° C | 32% | 1015.6 hPa | 0 mm | - | - | - |
| 1777439211 | 3.89° C | 34% | 1015.5 hPa | 0 mm | - | - | - |
| 1777438910 | 4.44° C | 33% | 1015.4 hPa | 0 mm | - | - | - |
| 1777438610 | 4.44° C | 32% | 1015.5 hPa | 0 mm | - | - | - |
| 1777438310 | 4.44° C | 30% | 1015.6 hPa | 0 mm | - | - | - |
| 1777438010 | 4.44° C | 29% | 1015.7 hPa | 0 mm | - | - | - |
| 1777437709 | 5° C | 28% | 1015.7 hPa | 0 mm | - | - | - |
| 1777437409 | 5° C | 28% | 1015.7 hPa | 0 mm | - | - | - |
| 1777437109 | 5.56° C | 28% | 1015.8 hPa | 0 mm | - | - | - |
* Rain latest hour (hover to see other rain measurements)
** Current wind speed in m/s (hover to see current wind gust speed)